Flag for India Weather past 2 weeks in Navi Mumbai, Maharashtra, India

Now
82 °F

Passing clouds.


Feels Like: 87 °F
Forecast: 76 / 99 °F
Wind: 5 mph from North

Location: Bombay / Santacruz


UV Index: 10 (Very high)

Visibility: 3 mi


Pressure: 29.89 "Hg

Humidity: 70%

Dew point: 72 °F

Location of Navi MumbaiLocation

Historic Weather in Navi Mumbai

°F

Navi Mumbai temperature yesterday

Maximum temperature yesterday: 86 °F (at 11:40 AM)
Minimum temperature yesterday: 79 °F (at 3:40 AM)
Average temperature yesterday: 82 °F

Past Weeks' High & Low Weather Summary

 TemperatureHumidityPressure
High95 °F (Apr 4, 12:40 PM)89% (Apr 6, 1:40 AM)29.98 "Hg (Apr 6, 1:40 AM)
Low75 °F (Apr 13, 6:40 AM)32% (Apr 4, 10:40 AM)29.71 "Hg (Apr 4, 4:40 PM)
Average83 °F68%29.85 "Hg
* Reported Apr 3 7:40 PM — Apr 18 7:40 PM, Navi Mumbai, Weather by CustomWeather, © 2014

Note: Actual official high and low records may vary slightly from our data, if they occured in-between our weather recording intervals... More about our weather records

Advertising

Historic Weather Conditions — Data for Previous 24 hours

 ConditionsComfort  
Time TempWeatherWind HumidityBarometerVisibility
7:40 PM
Apr 18
82 °FPassing clouds.6 mph70%29.86 "Hg3 mi
6:40 PM84 °FScattered clouds.10 mph66%29.83 "Hg3 mi
5:40 PM84 °FPassing clouds.9 mph66%29.83 "Hg4 mi
4:40 PM84 °FScattered clouds.14 mph66%29.83 "Hg4 mi
3:40 PM86 °FScattered clouds.13 mph62%29.83 "Hg4 mi
2:40 PM86 °FPassing clouds.8 mph62%29.86 "Hg4 mi
1:40 PM88 °FPassing clouds.13 mph59%29.86 "Hg4 mi
12:40 PM86 °FHaze.13 mph62%29.89 "Hg3 mi
11:40 AM86 °FHaze.8 mph62%29.89 "Hg2 mi
10:40 AM86 °FScattered clouds.8 mph62%29.89 "Hg2 mi
9:40 AM84 °FScattered clouds.5 mph66%29.89 "Hg2 mi
8:40 AM86 °FScattered clouds.3 mph66%29.89 "Hg2 mi
7:40 AM82 °FScattered clouds.3 mph74%29.86 "Hg1 mi
6:40 AM81 °FPassing clouds.No wind79%29.86 "Hg1 mi
4:40 AM81 °FPassing clouds.No wind74%29.83 "Hg2 mi
3:40 AM81 °FHaze.No wind74%29.83 "Hg2 mi
2:40 AM81 °FPassing clouds.5 mph74%29.80 "Hg2 mi
1:40 AM81 °FPassing clouds.6 mph74%29.80 "Hg2 mi
12:40 AM82 °FPassing clouds.No wind70%29.83 "Hg2 mi
11:40 PM
Apr 17
82 °FPassing clouds.8 mph70%29.83 "Hg2 mi
9:40 PM82 °FPassing clouds.7 mph70%29.83 "Hg2 mi
Weather by CustomWeather, © 2014

See weather overview